DW5664 Weather Reports


Display with metric or nautical units.
time (UTC)temp
F
wind
direction
speed
MPH
gust
MPH
rain 1hr
in
rain 24hr
in
rain mn
in
humidity
%
barometer
mb
20200714142911 72 176 8.0 13.0 0.00 0.00 0.00 67 1017.9
20200714142328 72 169 8.0 13.0 0.00 0.00 0.00 67 1018.0
20200714141827 72 173 7.0 12.0 0.00 0.00 0.00 68 1018.0
20200714141322 71 192 5.0 9.0 0.00 0.00 0.00 68 1018.0
20200714140822 70 193 6.0 10.0 0.00 0.00 0.00 71 1018.1
20200714140342 70 195 7.0 14.0 0.00 0.00 0.00 70 1018.1
20200714135827 70 186 8.0 14.0 0.00 0.00 0.00 68 1018.0
20200714135327 71 181 8.0 12.0 0.00 0.00 0.00 67 1018.0
20200714134826 70 155 9.0 15.0 0.00 0.00 0.00 68 1018.0
20200714134341 70 169 8.0 15.0 0.00 0.00 0.00 68 1018.0
20200714133833 70 159 8.0 13.0 0.00 0.00 0.00 70 1018.1
20200714133332 69 188 9.0 13.0 0.00 0.00 0.00 69 1018.3
20200714132827 69 170 8.0 12.0 0.00 0.00 0.00 69 1018.3
20200714132326 69 176 8.0 17.0 0.00 0.00 0.00 70 1018.4
20200714131824 68 186 9.0 16.0 0.00 0.00 0.00 70 1018.5
20200714131341 68 192 8.0 14.0 0.00 0.00 0.00 71 1018.5
20200714130842 68 160 8.0 13.0 0.00 0.00 0.00 71 1018.5
20200714130400 68 159 8.0 11.0 0.00 0.00 0.00 73 1018.5
20200714125825 67 173 8.0 13.0 0.00 0.00 0.00 73 1018.4
20200714125324 67 178 9.0 13.0 0.00 0.00 0.00 74 1018.3
20200714124824 67 176 8.0 12.0 0.00 0.00 0.00 75 1018.4
20200714124321 67 181 7.0 11.0 0.00 0.00 0.00 76 1018.4
20200714123841 66 175 8.0 12.0 0.00 0.00 0.00 77 1018.3
20200714123339 66 171 8.0 12.0 0.00 0.00 0.00 79 1018.3
20200714122834 65 177 7.0 11.0 0.00 0.00 0.00 82 1018.2
20200714122333 64 190 8.0 11.0 0.00 0.00 0.00 84 1018.3
20200714121833 64 186 6.0 9.0 0.00 0.00 0.00 87 1018.4
20200714121334 63 188 6.0 10.0 0.00 0.00 0.00 88 1018.4
20200714120834 62 189 6.0 10.0 0.00 0.00 0.00 89 1018.5
20200714120333 62 193 6.0 8.0 0.00 0.00 0.00 89 1018.6
20200714115840 62 200 4.0 8.0 0.00 0.00 0.00 89 1018.4
20200714115341 62 204 6.0 8.0 0.00 0.00 0.00 89 1018.4
20200714114901 62 205 5.0 9.0 0.00 0.00 0.00 88 1018.4
20200714114338 62 204 6.0 10.0 0.00 0.00 0.00 88 1018.4
20200714113838 62 194 7.0 10.0 0.00 0.00 0.00 88 1018.3
20200714113337 62 194 5.0 10.0 0.00 0.00 0.00 88 1018.2
20200714112834 62 202 7.0 10.0 0.00 0.00 0.00 89 1018.2
20200714112334 61 202 7.0 10.0 0.00 0.00 0.00 88 1018.3
20200714111833 61 188 7.0 11.0 0.00 0.00 0.00 88 1018.0
20200714111330 61 188 7.0 12.0 0.00 0.00 0.00 88 1017.9
20200714110829 61 176 8.0 12.0 0.00 0.00 0.00 87 1017.6
20200714110346 61 176 6.0 9.0 0.00 0.00 0.00 87 1017.7
20200714105915 61 171 6.0 9.0 0.00 0.00 0.00 87 1017.7
20200714105330 61 177 5.0 9.0 0.00 0.00 0.00 88 1017.8
20200714104826 61 174 6.0 9.0 0.00 0.00 0.00 88 1017.6
20200714104337 61 181 6.0 9.0 0.00 0.00 0.00 88 1017.6
20200714103855 60 175 7.0 9.0 0.00 0.00 0.00 88 1017.4
20200714103330 60 179 6.0 9.0 0.00 0.00 0.00 89 1017.4
20200714102844 60 182 5.0 9.0 0.00 0.00 0.00 89 1017.4
20200714102341 60 174 6.0 10.0 0.00 0.00 0.00 89 1017.5
20200714101836 60 172 5.0 10.0 0.00 0.00 0.00 89 1017.4
20200714101336 60 179 5.0 8.0 0.00 0.00 0.00 89 1017.5
20200714100836 60 180 4.0 8.0 0.00 0.00 0.00 89 1017.5
20200714100345 60 177 4.0 7.0 0.00 0.00 0.00 89 1017.5
20200714095836 60 178 4.0 7.0 0.00 0.00 0.00 89 1017.5
20200714095332 60 178 4.0 7.0 0.00 0.00 0.00 89 1017.6
20200714094824 60 178 5.0 7.0 0.00 0.00 0.00 89 1017.6
20200714094322 60 177 4.0 8.0 0.00 0.00 0.00 89 1017.5
20200714093837 60 177 5.0 8.0 0.00 0.00 0.00 89 1017.3
20200714093350 60 173 6.0 8.0 0.00 0.00 0.00 89 1017.3
20200714092913 60 171 6.0 7.0 0.00 0.00 0.00 89 1017.3
20200714092831 60 171 6.0 7.0 0.00 0.00 0.00 89 1017.3
20200714092352 59 172 6.0 8.0 0.00 0.00 0.00 89 1017.3
20200714091339 59 179 4.0 7.0 0.00 0.00 0.00 89 1017.3
20200714090833 59 179 4.0 6.0 0.00 0.00 0.00 89 1017.3
20200714090339 59 181 4.0 6.0 0.00 0.00 0.00 89 1017.4
20200714085901 59 181 4.0 6.0 0.00 0.00 0.00 89 1017.6
20200714085336 59 181 4.0 6.0 0.00 0.00 0.00 88 1017.6
20200714084853 59 181 4.0 6.0 0.00 0.00 0.00 88 1017.6
20200714084324 59 181 4.0 8.0 0.00 0.00 0.00 88 1017.5
20200714083841 59 181 4.0 8.0 0.00 0.00 0.00 87 1017.4
20200714083339 59 175 5.0 8.0 0.00 0.00 0.00 87 1017.4
20200714082832 60 175 6.0 8.0 0.00 0.00 0.00 86 1017.2
20200714082336 60 175 4.0 7.0 0.00 0.00 0.00 86 1017.1
20200714081851 60 173 5.0 7.0 0.00 0.00 0.00 87 1017.0
20200714081410 60 175 4.0 7.0 0.00 0.00 0.00 87 1017.0
20200714080830 60 174 5.0 8.0 0.00 0.00 0.00 87 1017.2
20200714080328 59 173 5.0 8.0 0.00 0.00 0.00 87 1017.1
20200714075831 59 172 5.0 7.0 0.00 0.00 0.00 87 1016.9
20200714075327 59 171 6.0 7.0 0.00 0.00 0.00 87 1016.8
20200714074824 59 175 6.0 9.0 0.00 0.00 0.00 88 1016.9
20200714074336 59 176 5.0 9.0 0.00 0.00 0.00 88 1016.8
20200714073922 59 168 6.0 9.0 0.00 0.00 0.00 90 1016.6
20200714073335 59 157 5.0 9.0 0.00 0.00 0.00 90 1016.6
20200714072900 59 153 4.0 9.0 0.00 0.00 0.00 91 1016.5
20200714072336 59 153 6.0 8.0 0.00 0.00 0.00 92 1016.4
20200714071829 59 148 4.0 7.0 0.00 0.00 0.00 92 1016.5
20200714071354 58 147 4.0 8.0 0.00 0.00 0.00 92 1016.5
20200714070828 58 145 4.0 8.0 0.00 0.00 0.00 92 1016.6
20200714070344 57 101 3.0 6.0 0.00 0.00 0.00 92 1016.6
20200714065836 57 101 3.0 6.0 0.00 0.00 0.00 91 1016.6
20200714065333 57 101 3.0 6.0 0.00 0.00 0.00 91 1016.6
20200714064858 57 101 3.0 7.0 0.00 0.00 0.00 91 1016.8
20200714064338 58 101 3.0 7.0 0.00 0.00 0.00 91 1016.7
20200714063837 58 100 4.0 7.0 0.00 0.00 0.00 90 1016.6
20200714063329 58 74 4.0 5.0 0.00 0.00 0.00 90 1016.6
20200714062857 58 67 4.0 5.0 0.00 0.00 0.00 91 1016.6
20200714062337 58 51 2.0 5.0 0.00 0.00 0.00 90 1016.6
20200714061831 58 51 3.0 5.0 0.00 0.00 0.00 90 1016.5
20200714061351 58 321 1.0 3.0 0.00 0.00 0.00 91 1016.6
20200714060827 58 321 1.0 3.0 0.00 0.00 0.00 91 1016.6
20200714060323 58 321 1.0 4.0 0.00 0.00 0.00 91 1016.6
20200714055832 58 321 1.0 4.0 0.00 0.00 0.00 91 1016.7
20200714055326 58 321 1.0 3.0 0.00 0.00 0.00 92 1016.7
20200714054823 58 321 0.0 2.0 0.00 0.00 0.00 92 1016.7
20200714054340 58 321 1.0 2.0 0.00 0.00 0.00 92 1016.7
20200714053901 58 321 0.0 3.0 0.00 0.00 0.00 92 1016.7
20200714053338 58 321 1.0 3.0 0.00 0.00 0.00 92 1016.7
20200714052836 58 321 2.0 3.0 0.00 0.00 0.00 92 1016.6
20200714052328 58 321 1.0 2.0 0.00 0.00 0.00 91 1016.7
20200714051827 58 321 0.0 0.0 0.00 0.00 0.00 91 1016.7
20200714051347 58 321 0.0 1.0 0.00 0.00 0.00 90 1016.7
20200714050822 58 321 0.0 1.0 0.00 0.00 0.00 90 1016.7
20200714050322 58 321 0.0 0.0 0.00 0.00 0.00 89 1016.5
20200714045833 58 321 0.0 0.0 0.00 0.00 0.00 89 1016.5
20200714045358 58 321 0.0 0.0 0.00 0.00 0.00 89 1016.5
20200714044837 58 321 0.0 0.0 0.00 0.00 0.00 89 1016.5
20200714044336 58 321 0.0 0.0 0.00 0.00 0.00 88 1016.4
20200714043829 59 321 0.0 0.0 0.00 0.00 0.00 88 1016.4
20200714043347 59 321 0.0 0.0 0.00 0.00 0.00 88 1016.4
20200714042823 59 321 0.0 0.0 0.00 0.00 0.00 88 1016.5
20200714042339 59 321 0.0 0.0 0.00 0.00 0.00 87 1016.5
20200714041907 59 321 0.0 0.0 0.00 0.00 0.00 87 1016.4
20200714041344 59 321 0.0 0.0 0.00 0.00 0.00 87 1016.4
20200714040836 59 321 0.0 0.0 0.00 0.00 0.00 87 1016.4
20200714040353 59 321 0.0 0.0 0.00 0.00 0.00 87 1016.4
20200714035857 59 321 0.0 0.0 0.00 0.00 0.00 87 1016.4
20200714035335 59 321 0.0 0.0 0.00 0.00 0.00 86 1016.4
20200714034902 59 321 0.0 0.0 0.00 0.00 0.00 86 1016.4
20200714034335 59 321 0.0 0.0 0.00 0.00 0.00 86 1016.3
20200714033902 59 321 0.0 0.0 0.00 0.00 0.00 86 1016.2
20200714033340 60 321 0.0 0.0 0.00 0.00 0.00 86 1016.3
20200714032854 60 321 0.0 0.0 0.00 0.00 0.00 86 1016.2
20200714032332 60 321 0.0 1.0 0.00 0.00 0.00 86 1016.2
20200714031832 60 321 0.0 1.0 0.00 0.00 0.00 85 1016.2
20200714031415 60 321 0.0 1.0 0.00 0.00 0.00 84 1016.3
20200714030832 60 321 0.0 0.0 0.00 0.00 0.00 84 1016.2
20200714030328 61 321 0.0 0.0 0.00 0.00 0.00 83 1016.3
20200714025836 61 321 0.0 0.0 0.00 0.00 0.00 83 1016.3
20200714025336 61 321 0.0 0.0 0.00 0.00 0.00 82 1016.4
20200714024834 62 321 0.0 0.0 0.00 0.00 0.00 81 1016.3
20200714024329 62 321 0.0 0.0 0.00 0.00 0.00 81 1016.3
20200714023828 62 321 0.0 1.0 0.00 0.00 0.00 81 1016.3
20200714023412 63 321 0.0 2.0 0.00 0.00 0.00 80 1016.3
20200714022855 63 321 0.0 3.0 0.00 0.00 0.00 79 1016.2
20200714022402 63 321 0.0 3.0 0.00 0.00 0.00 79 1016.3
20200714021837 63 321 1.0 3.0 0.00 0.00 0.00 79 1016.2
20200714021358 63 321 2.0 3.0 0.00 0.00 0.00 78 1016.2
20200714020836 64 321 1.0 3.0 0.00 0.00 0.00 77 1016.3
20200714020357 64 321 1.0 3.0 0.00 0.00 0.00 77 1016.3
20200714015918 64 321 2.0 3.0 0.00 0.00 0.00 77 1016.2
20200714015331 64 321 2.0 3.0 0.00 0.00 0.00 75 1016.2
20200714014836 65 321 2.0 4.0 0.00 0.00 0.00 74 1016.1
20200714014333 65 321 3.0 5.0 0.00 0.00 0.00 72 1016.1
20200714013830 65 321 3.0 5.0 0.00 0.00 0.00 72 1016.1
20200714013351 65 321 3.0 4.0 0.00 0.00 0.00 73 1016.1
20200714012845 66 321 3.0 4.0 0.00 0.00 0.00 72 1016.0
20200714012324 66 321 3.0 4.0 0.00 0.00 0.00 72 1015.9
20200714011824 66 321 2.0 3.0 0.00 0.00 0.00 72 1016.0
20200714011324 67 321 1.0 3.0 0.00 0.00 0.00 69 1015.9
20200714010841 68 321 2.0 3.0 0.00 0.00 0.00 67 1016.0
20200714010340 68 321 2.0 3.0 0.00 0.00 0.00 67 1015.9
20200714005847 69 321 3.0 5.0 0.00 0.00 0.00 64 1016.0
20200714005327 70 321 3.0 5.0 0.00 0.00 0.00 63 1016.0
20200714004847 70 321 3.0 5.0 0.00 0.00 0.00 62 1016.1
20200714004341 71 321 3.0 6.0 0.00 0.00 0.00 61 1016.0
20200714003839 71 321 3.0 6.0 0.00 0.00 0.00 61 1016.1
20200714003340 71 321 4.0 5.0 0.00 0.00 0.00 59 1016.0
20200714002904 72 321 3.0 5.0 0.00 0.00 0.00 59 1016.1
20200714002322 72 321 3.0 6.0 0.00 0.00 0.00 59 1016.0
20200714001823 72 321 4.0 6.0 0.00 0.00 0.00 58 1016.0
20200714001339 72 321 4.0 8.0 0.00 0.00 0.00 58 1015.9
20200714000841 72 321 4.0 8.0 0.00 0.00 0.00 57 1015.9
20200714000408 73 321 3.0 8.0 0.00 0.00 0.00 56 1015.9
20200713235834 73 309 6.0 8.0 0.00 0.00 0.00 56 1015.9
20200713235354 73 329 5.0 8.0 0.00 0.00 0.00 56 1015.8
20200713234832 73 350 5.0 6.0 0.00 0.00 0.00 55 1015.8
20200713234329 73 329 4.0 10.0 0.00 0.00 0.00 55 1015.7
20200713233831 73 329 5.0 10.0 0.00 0.00 0.00 55 1015.9
20200713233331 74 319 4.0 11.0 0.00 0.00 0.00 56 1015.9
20200713232847 74 298 8.0 11.0 0.00 0.00 0.00 55 1015.8
20200713232328 74 287 5.0 11.0 0.00 0.00 0.00 55 1015.9
20200713231827 74 338 3.0 10.0 0.00 0.00 0.00 54 1015.8
20200713231321 74 308 6.0 10.0 0.00 0.00 0.00 52 1015.9
20200713230822 74 317 5.0 10.0 0.00 0.00 0.00 53 1015.8
20200713230321 74 308 6.0 13.0 0.00 0.00 0.00 52 1015.9
20200713225830 74 303 8.0 13.0 0.00 0.00 0.00 51 1015.8
20200713225359 74 272 4.0 10.0 0.00 0.00 0.00 51 1015.8
20200713224839 74 316 2.0 9.0 0.00 0.00 0.00 52 1015.8
20200713224336 74 340 6.0 12.0 0.00 0.00 0.00 52 1015.8
20200713223835 75 336 8.0 12.0 0.00 0.00 0.00 53 1015.7
20200713223335 74 265 7.0 12.0 0.00 0.00 0.00 51 1015.7
20200713222831 75 329 7.0 12.0 0.00 0.00 0.00 52 1015.8
20200713222330 75 341 6.0 12.0 0.00 0.00 0.00 49 1015.7
20200713221832 75 333 8.0 14.0 0.00 0.00 0.00 50 1015.7
20200713221328 75 355 9.0 14.0 0.00 0.00 0.00 50 1015.6
20200713220858 75 309 5.0 11.0 0.00 0.00 0.00 51 1015.6
20200713220339 74 360 5.0 10.0 0.00 0.00 0.00 51 1015.7
20200713215838 75 9 6.0 12.0 0.00 0.00 0.00 49 1015.7
20200713215330 75 355 8.0 12.0 0.00 0.00 0.00 49 1015.7
20200713214857 75 323 6.0 12.0 0.00 0.00 0.00 49 1015.7
20200713214332 75 276 4.0 12.0 0.00 0.00 0.00 50 1015.8
20200713213832 76 297 3.0 11.0 0.00 0.00 0.00 50 1015.8
20200713213420 74 348 8.0 12.0 0.00 0.00 0.00 48 1015.9
20200713213338 74 348 8.0 12.0 0.00 0.00 0.00 48 1015.9
20200713212833 75 311 8.0 12.0 0.00 0.00 0.00 47 1015.9
20200713212420 75 344 7.0 13.0 0.00 0.00 0.00 48 1016.0
20200713211833 75 316 9.0 13.0 0.00 0.00 0.00 51 1015.9
20200713211332 75 290 8.0 13.0 0.00 0.00 0.00 49 1015.9
20200713210921 76 326 8.0 13.0 0.00 0.00 0.00 50 1015.9
20200713210337 75 334 7.0 17.0 0.00 0.00 0.00 49 1015.8
20200713205836 74 336 9.0 17.0 0.00 0.00 0.00 51 1015.9
20200713205350 74 335 9.0 13.0 0.00 0.00 0.00 52 1015.8
20200713204830 74 267 8.0 19.0 0.00 0.00 0.00 50 1015.8
20200713204357 75 293 6.0 19.0 0.00 0.00 0.00 48 1015.8
20200713203839 75 344 3.0 12.0 0.00 0.00 0.00 51 1015.8
20200713203340 75 12 9.0 13.0 0.00 0.00 0.00 49 1015.9
20200713202900 74 355 7.0 13.0 0.00 0.00 0.00 50 1015.9
20200713202336 74 360 10.0 14.0 0.00 0.00 0.00 50 1015.9
20200713201836 75 5 10.0 14.0 0.00 0.00 0.00 47 1016.0
20200713201336 74 305 7.0 15.0 0.00 0.00 0.00 51 1015.9
20200713200831 74 321 10.0 15.0 0.00 0.00 0.00 49 1016.0
20200713200331 75 336 6.0 12.0 0.00 0.00 0.00 47 1015.9
20200713195841 75 309 8.0 14.0 0.00 0.00 0.00 48 1015.9
20200713195336 75 306 9.0 13.0 0.00 0.00 0.00 49 1015.9
20200713194854 76 339 8.0 17.0 0.00 0.00 0.00 48 1015.9
20200713194353 76 336 9.0 17.0 0.00 0.00 0.00 49 1015.9
20200713193828 75 318 9.0 14.0 0.00 0.00 0.00 48 1016.0
20200713193328 75 286 6.0 13.0 0.00 0.00 0.00 47 1015.8
20200713192828 75 301 10.0 17.0 0.00 0.00 0.00 47 1015.9
20200713192323 74 305 11.0 17.0 0.00 0.00 0.00 52 1015.9
20200713191823 74 304 9.0 13.0 0.00 0.00 0.00 48 1015.9
20200713191411 73 16 9.0 17.0 0.00 0.00 0.00 54 1015.8
20200713191329 73 16 9.0 17.0 0.00 0.00 0.00 54 1015.8
20200713190823 75 355 12.0 17.0 0.00 0.00 0.00 49 1015.8
20200713190337 76 333 6.0 13.0 0.00 0.00 0.00 50 1015.7
20200713185900 74 34 6.0 14.0 0.00 0.00 0.00 47 1015.7
20200713185336 75 5 9.0 15.0 0.00 0.00 0.00 48 1015.8
20200713184903 75 308 7.0 14.0 0.00 0.00 0.00 49 1015.7
20200713184336 75 328 8.0 18.0 0.00 0.00 0.00 49 1015.7
20200713183834 75 9 13.0 18.0 0.00 0.00 0.00 50 1015.6
20200713183336 74 323 9.0 14.0 0.00 0.00 0.00 51 1015.7
20200713182850 74 355 6.0 14.0 0.00 0.00 0.00 51 1015.8
20200713182358 74 355 3.0 13.0 0.00 0.00 0.00 51 1015.7
20200713181857 74 18 7.0 16.0 0.00 0.00 0.00 51 1015.9
20200713181330 74 313 8.0 14.0 0.00 0.00 0.00 52 1015.8
20200713180839 73 355 5.0 16.0 0.00 0.00 0.00 53 1015.9
20200713180347 71 9 9.0 16.0 0.00 0.00 0.00 55 1015.9
20200713175855 71 360 11.0 17.0 0.00 0.00 0.00 56 1015.9
20200713175422 72 338 13.0 17.0 0.00 0.00 0.00 55 1016.0
20200713174836 73 340 10.0 14.0 0.00 0.00 0.00 53 1016.0
20200713174343 72 5 8.0 14.0 0.00 0.00 0.00 55 1016.0
20200713173822 72 344 11.0 18.0 0.00 0.00 0.00 52 1016.0
20200713173338 74 343 12.0 18.0 0.00 0.00 0.00 51 1016.0
20200713172838 74 313 12.0 17.0 0.00 0.00 0.00 51 1015.9
20200713172336 74 274 8.0 14.0 0.00 0.00 0.00 53 1015.9
20200713171851 72 336 9.0 19.0 0.00 0.00 0.00 57 1016.1
20200713171330 73 342 11.0 22.0 0.00 0.00 0.00 55 1016.2
20200713170830 74 5 14.0 22.0 0.00 0.00 0.00 50 1016.1
20200713170327 74 331 8.0 20.0 0.00 0.00 0.00 54 1016.1
20200713165836 74 5 12.0 18.0 0.00 0.00 0.00 52 1016.1
20200713165336 73 309 9.0 16.0 0.00 0.00 0.00 55 1016.1
20200713164832 72 329 9.0 15.0 0.00 0.00 0.00 57 1016.1
20200713164402 72 5 9.0 15.0 0.00 0.00 0.00 59 1016.2
20200713163900 71 308 7.0 20.0 0.00 0.00 0.00 56 1016.2
20200713163336 72 300 6.0 20.0 0.00 0.00 0.00 55 1016.1
20200713162837 72 320 12.0 18.0 0.00 0.00 0.00 54 1016.1
20200713162336 73 21 11.0 16.0 0.00 0.00 0.00 54 1016.1
20200713161849 71 5 7.0 14.0 0.00 0.00 0.00 57 1016.1
20200713161348 70 355 10.0 14.0 0.00 0.00 0.00 59 1016.2
20200713160847 72 342 9.0 17.0 0.00 0.00 0.00 58 1016.2
20200713160322 72 360 9.0 20.0 0.00 0.00 0.00 58 1016.2
20200713155832 72 9 13.0 20.0 0.00 0.00 0.00 57 1016.2
20200713155332 72 327 11.0 18.0 0.00 0.00 0.00 58 1016.2
20200713154829 72 13 13.0 20.0 0.00 0.00 0.00 57 1016.1
20200713154329 72 16 12.0 20.0 0.00 0.00 0.00 60 1016.1
20200713153830 71 20 12.0 17.0 0.00 0.00 0.00 61 1016.2
20200713153346 71 339 11.0 18.0 0.00 0.00 0.00 61 1016.2
20200713152857 71 19 9.0 18.0 0.00 0.00 0.00 61 1016.1
20200713152336 71 13 10.0 18.0 0.00 0.00 0.00 62 1016.0
20200713151831 71 5 10.0 15.0 0.00 0.00 0.00 63 1016.1
20200713151332 70 344 10.0 19.0 0.00 0.00 0.00 63 1016.2
20200713150832 70 337 14.0 19.0 0.00 0.00 0.00 62 1016.2
20200713150329 70 339 11.0 16.0 0.00 0.00 0.00 62 1016.1
20200713145838 70 319 9.0 17.0 0.00 0.00 0.00 61 1016.1
20200713145338 70 348 7.0 16.0 0.00 0.00 0.00 62 1016.1
20200713144822 70 311 7.0 13.0 0.00 0.00 0.00 64 1016.0
20200713144322 69 305 9.0 13.0 0.00 0.00 0.00 65 1015.9
20200713143822 69 319 8.0 16.0 0.00 0.00 0.00 67 1016.0
20200713143338 69 345 8.0 16.0 0.00 0.00 0.00 68 1016.1